STARLINK-3254, 50204

Orbit data source: Space-Track

STARLINK-3254, 50204 is a payload satellite owned by SpaceX/Seattle (US) in LEO that was launched on Sat, 18 Dec 2021 UTC via an FALCON 9 launch vehicle from the Air Force Western Test Range (AFWTR). Payload-class satellites include a variety of spacecraft equipped with specific instruments for various scientific and technological missions. These include communications satellites like Starlink; space stations such as the ISS; scientific satellites like the Hubble; Earth observation satellites from companies like Planet Labs, Umbra, and HawkEye 360; GPS; miniature CubeSats for education and research; and military/defense satellites.

Loading next visibility...
Identifier
50204, 2021-125BA
Orbit
LEO
Country
Flag of USUS
Related business
Manufacturer
SpaceX/Seattle
Mission
Operational Commercial Communications
Bus & Motor
STARLINK, Unknown motor
Mass
290 kg wet, ~270 kg dry
Launch date (UTC)
2021-12-18 (5 years ago)
Launch vehicle
FALCON 9
Launch site
Air Force Western Test Range (AFWTR)
Object type
Payload
Rocket body
Debris
Shape & HBR
Box + 1 Pan, 10.1 m
Radar Cross Section
13.562 m², Large (>1 m²)

Expand to show TLE details & history
Last TLE update: 22 hours ago

TLE from 22 hours ago
0 STARLINK-3254
1 50204U 21125BA  26169.21655058  .00000512  00000-0  50293-4 0  9999
2 50204  53.1595 147.7453 0001334  93.1803 266.9341 15.08836469251961
Epoch: 2026-06-18T05:11Z
TLE epoch observation values (Epoch: 2026-06-18T05:11:49.970Z)
Latitude
-0.00001°
Longitude
163.32403°
Altitude
540.695 km
Speed
7.593 km/s
True Right ascension
09h 50m 58s
True Declination
0° 00' 00"
Sunlit
Object was in daylight at epoch
Visualization orbit readout
Latitude
Unknown
Longitude
Unknown
Altitude
Unknown
Speed
Unknown
Apparent Right ascension
Unknown
Apparent Declination
Unknown
Sunlit
N/A
Visualization observer readout
Local Sidereal Time
14:06:45
Azimuth
Unknown
Elevation
Unknown
Doppler factor
Unknown
Orbital elements
Apogee altitude
540.931 km
Perigee altitude
539.085 km
Semi-major axis
6,918.145 km
Eccentricity
0.00013
Inclination
53.1595°
RAAN
147.7453°
Arg. of periapsis
93.1803°
True anomaly
266.91884°
Mean anomaly
266.9341°
Eccentric anomaly
266.92647°
Mean motion
3.77189 °/min
Orbital period
95.44 mins
BSTAR
0.000050293
Loading maneuver chart data...
Computing Atmospheric mass density...

Documentation

Showing up to 5 results
|